www.pogodaiklimat.ru

Погода и климат >> Архив погоды >> Россия >> Волгоградская область >> Волгоград


АРХИВ ПОГОДЫ в Волгограде

Время (UTC), дата Ветер
(напр.,м/с)
 
Видим.   Явления Облачность Т
(С)
Тd
(С)
f
(%)
Тe
(С)
Тes
(С)
Комфортность P
(гПа)
Po
(гПа)
Тmin
(С)
Tmax
(С)
R
(мм)
R24
(мм)
S
(см)
03 15.10 штиль 0 300 м туман 8/8 60 м
[St]
+5.3 +5.0 98 +4 +4 по сезону 1011.4 992.5 +5.3
06 15.10 ЮЗ 4 10 км {туман} 8/8 100 м
[St]
+9.2 +8.1 93 +6 +6 по сезону 1010.6 992.0 +4.6
09 15.10 З 7
{10}
10 км 8/8 330 м
[St]
+9.7 +7.2 84 +6 +6 по сезону 1010.0 991.5
12 15.10 З 7
{11}
10 км {ливн. осадки, дождь} 9/9 1000 м
[Sc]
+8.9 +4.9 76 +5 +5 холодно 1008.7 990.1
15 15.10 З 7
{11}
10 км 9/9 1000 м
[Sc]
+7.3 +3.6 77 +3 +3 прохладно 1007.0 988.3 +10.3
18 15.10 ЮЗ 6
{11}
10 км слабый ливневой дождь 9/9 700 м
[Cb calv]
+5.9 +5.0 94 +1 +1 прохладно 1002.9 984.2
21 15.10 З 7
{10}
10 км слабый дождь {ливн. осадки} 10/10 120 м
[Frnb Ns]
+7.9 +7.4 97 +3 +3 по сезону 998.3 979.9
00 16.10 З 6
{10}
10 км {ливн. осадки, дождь} 9/9 150 м
[Sc]
+7.8 +7.1 95 +3 +3 по сезону 997.3 978.9
03 16.10 СЗ 10-14
{14}
10 км слабый ливневой дождь 9/9 330 м
[Cb calv]
+6.5 +5.0 90 +1 +1 по сезону 998.7 980.2 +5.5
06 16.10 СЗ 10-15
{16}
10 км слабый дождь {ливн. осадки} 10/10 210 м
[Frnb Ns]
+4.4 +3.3 93 -2 -2 холодно 1002.6 983.8 +4.1
09 16.10 СЗ 9-11
{17}
10 км 9/9 540 м
[Sc]
+6.7 +3.3 79 +1 +1 холодно 1005.1 986.4
12 16.10 СЗ 8
{17}
10 км в посл. час дождь 9/9 500 м
[Sc]
+8.1 +5.6 84 +3 +3 холодно 1006.6 988.0
15 16.10 СЗ 11-14
{15}
10 км слабый ливневой дождь 10/10 330 м
[Cb calv]
+6.1 +4.7 91 -0 -0 холодно 1009.0 990.2 +9.3
18 16.10 СЗ 10-13
{15}
10 км {ливн. осадки} 9/9 420 м
[St]
+5.8 +4.0 88 -0 -0 прохладно 1009.5 990.7
21 16.10 СЗ 10-13
{13}
10 км 10/10 420 м
[St]
+6.1 +4.0 86 0 0 прохладно 1010.1 991.3
00 17.10 СЗ 9-12
{14}
10 км 8/8 800 м
[Sc]
+5.7 +3.8 88 -0 -0 по сезону 1010.9 992.1
03 17.10 СЗ 8-11
{13}
10 км 5/5 420 м
[St]
+5.1 +3.4 89 -1 -1 прохладно 1012.2 993.3 +4.9
06 17.10 СЗ 8-12
{13}
10 км 9/9 360 м
[St]
+6.5 +4.0 84 +1 +1 прохладно 1013.8 995.0 +4.5
09 17.10 СЗ 8-11
{12}
10 км 8/8 900 м
[Sc]
+8.9 +3.3 68 +5 +5 по сезону 1014.0 995.3
12 17.10 СЗ 8
{12}
10 км 9/6 840 м
[Sc Ac trans]
+8.9 +2.5 64 +5 +5 прохладно 1014.0 995.3
15 17.10 З 5 10 км 9/0
[Ac trans]
+8.8 +4.0 72 +5 +5 по сезону 1014.5 995.8 +9.5
18 17.10 З 4 10 км 8/8 960 м
[Sc]
+8.7 +4.8 76 +6 +6 по сезону 1014.8 996.1
21 17.10 СЗ 8-10
{10}
10 км 9/9 360 м
[St]
+9.9 +7.7 86 +6 +6 по сезону 1015.6 997.0
00 18.10 СЗ 7
{11}
10 км 8/8 480 м
[Sc]
+7.7 +5.8 88 +3 +3 по сезону 1017.7 998.9
03 18.10 З 3 10 км 4/0 2000 м
[Ac trans]
+3.6 +2.6 93 -0 -0 прохладно 1020.5 1001.3 +3.5
06 18.10 З 5 100 м туман ?/? +6.2 +5.8 97 +2 +2 по сезону 1021.9 1002.9 +3.0
09 18.10 З 7 10 км в посл. час туман 9/9 120 м
[St]
+8.4 +7.7 95 +4 +4 по сезону 1021.7 1002.9
12 18.10 З 7 10 км {туман} ясно +11.8 +8.7 81 +9 +9 по сезону 1020.1 1001.5
15 18.10 ЮЗ 7 4000 м дымка ясно +9.0 +8.3 95 +5 +5 по сезону 1019.6 1000.8 +11.9
18 18.10 ЮЗ 8
{10}
10 км ясно +9.9 +8.9 93 +6 +6 по сезону 1019.1 1000.4
21 18.10 ЮЗ 8
{12}
10 км ясно +9.4 +7.9 90 +5 +5 по сезону 1018.2 999.5
00 19.10 З 8
{12}
10 км ясно +9.0 +7.6 91 +4 +4 по сезону 1017.5 998.8
03 19.10 З 6 10 км ясно +8.3 +7.2 93 +4 +4 по сезону 1017.5 998.7 +8.0
06 19.10 З 8 4000 м ясно +11.0 +9.0 87 +7 +8 тепло 1017.3 998.7
09 19.10 З 8
{10}
10 км 5/0
[As trans Ci ing]
+15.8 +10.7 72 +14 +15 тепло 1016.3 998.1
12 19.10 ЮЗ 8-10
{12}
10 км 5/0
[Ci fib]
+17.5 +11.3 67 +16 +17 тепло 1015.8 997.7
15 19.10 З 7
{11}
10 км 8/0
[Ci fib]
+14.3 +11.3 82 +12 +12 тепло 1016.1 997.8 +17.8
18 19.10 З 4
{11}
10 км 5/5 900 м
[Sc]
+11.6 +10.1 91 +9 +9 тепло 1016.5 998.0
21 19.10 штиль 0 4000 м дымка 4/0
[Ci fib]
+9.4 +8.9 97 +8 +8 тепло 1016.7 998.0
00 20.10 штиль 0 4000 м дымка 9/9 700 м
[Sc]
+10.2 +9.6 96 +9 +9 тепло 1016.4 997.8
03 20.10 С 2 4000 м дымка 9/9 360 м
[St]
+11.6 +10.8 95 +10 +10 тепло 1016.8 998.3 +8.9
06 20.10 В 3 4000 м дымка 9/9 200 м
[Sc]
+11.8 +10.0 89 +10 +10 тепло 1018.0 999.5
09 20.10 СВ 2 10 км 9/9 1000 м
[Sc]
+14.4 +7.1 62 +14 +15 тепло 1018.1 999.7
12 20.10 СВ 2 10 км 8/8 1000 м
[Sc]
+14.7 +5.9 56 +15 +15 тепло 1018.0 999.6
15 20.10 С 3 10 км 9/9 1000 м
[Sc]
+11.9 +4.8 62 +10 +10 тепло 1019.1 1000.5 +15.8
18 20.10 СВ 3 10 км слабый ливневой дождь 9/9 1000 м
[Cb calv]
+9.3 +5.1 75 +7 +7 тепло 1019.4 1000.7
21 20.10 В 5 10 км {ливн. осадки} 9/9 1000 м
[Cb calv]
+8.2 +3.7 73 +5 +5 по сезону 1019.5 1000.7
00 21.10 ЮВ 3 4000 м слабый ливневой дождь 9/9 1000 м
[Cb calv]
+6.7 +5.7 93 +3 +3 по сезону 1019.3 1000.4
03 21.10 СВ 1 10 км {ливн. осадки} 9/9 1000 м
[Sc]
+6.5 +5.0 90 +5 +5 по сезону 1019.2 1000.3 +6.2
06 21.10 В 4 10 км {ливн. осадки} 9/9 1500 м
[Sc]
+7.3 +3.6 77 +4 +4 по сезону 1019.1 1000.2
09 21.10 В 3 10 км 8/0
[Ac trans]
+9.7 +1.7 57 +8 +10 по сезону 1018.2 999.5
12 21.10 ЮВ 2 10 км 9/0
[Ac trans]
+9.3 +1.0 56 +8 +9 по сезону 1017.1 998.4
15 21.10 штиль 0 10 км 9/0
[Ac trans]
+7.7 +2.2 68 +7 +7 по сезону 1017.1 998.3 +10.2
18 21.10 штиль 0 10 км 8/0
[Ac trans Ci fib]
+5.9 +3.2 83 +5 +5 по сезону 1016.9 998.0
21 21.10 штиль 0 10 км 9/0 2000 м
[Ac trans]
+5.7 +3.5 86 +5 +5 по сезону 1016.0 997.1
00 22.10 В 2 4000 м дымка 9/0
[Ac trans]
+5.9 +4.1 88 +3 +3 по сезону 1014.5 995.6

 

Местоположение метеостанции Волгоград (Волгоградская область, Россия): широта 48.78 долгота 44.37 высота над уровнем моря 134 м.

В архиве по умолчанию представлена погода в Волгограде за последнюю неделю. Архивные данные за месяц целиком и за предыдущие месяцы, начиная с января 2011 года, Вы можете получить, выбрав интересующий диапазон дат из раскрывающегося списка и нажав кнопку "Ввод!".

Внимание! Время в таблицах - всемирное. Для получения местного времени необходимо прибавить поправку, которая в Волгограде равна 3 ч.

Смотрите также архив погоды в соседних городах и на ближайших метеорологических станциях:

Погода в Волгограде город (Волгоградская область, Россия) (14 км)
Погода в Иловле (Волгоградская область, Россия) (64 км)
Погода в Калаче-на-Дону (Волгоградская область, Россия) (66 км)
Погода в Малых Дербетах (Калмыкия, Россия) (98 км)
Погода в Нижнем Чире (Волгоградская область, Россия) (105 км)
Погода в Ольховке (Волгоградская область, Россия) (122 км)
Погода в Фролове (Волгоградская область, Россия) (124 км)
Погода в Серафимовиче (Волгоградская область, Россия) (148 км)
Погода в Черный Яр (Астраханская область, Россия) (151 км)
Погода в Котельниково (Волгоградская область, Россия) (157 км)

Пояснения к столбцам:

Ветер - указаны скорость ветра в м/с - средняя за 10 мин, порывы в срок и между сроками (в фигурных скобках) и направление, откуда дует ветер: С - северный, СВ - северо-восточный, В - восточный, ЮВ - юго-восточный, Ю - южный, ЮЗ - юго-западный, З - западный, СЗ - северо-западный.
Видимость - горизонтальная дальность видимости в метрах или километрах. При видимости от 1 до 10 км при отсутствии осадков обычно наблюдается дымка, при ухудшении видимости до 1 км и менее - туман. В сухую погоду видимость может ухудшаться дымом, пылью или мглою.
Явления - указаны атмосферные явления, наблюдавшиеся в срок или в последний час перед сроком; фигурными скобками обозначены явления, наблюдавшиеся между сроками (за 1-3 часа до срока); квадратными скобками обозначены град или гололедные отложения с указанием их диаметра в мм.
Облачность - указаны через наклонную черту общая и нижняя облачность в баллах и высота нижней границы облаков в метрах; квадратными скобками обозначены формы облаков: Ci - перистые, Cs - перисто-слоистые, Cc - перисто-кучевые, Ac - высококучевые, As - высокослоистые, Sc - слоисто-кучевые, Ns - слоисто-дождевые, Cu - кучевые, Cb - кучево-дождевые. Подробнее классификацию облаков см. в Атласе облаков (PDF).
T - Температура воздуха - температура, измеренная на высоте 2 м над землей.
Td - Температура точки росы - температура, при понижении до которой содержащийся в воздухе водяной пар достигнет насыщения.
f - Относительная влажность воздуха - влажноcть воздуха, измеренная на высоте 2 м над землей.
Te - Эффективная температура - температура, которую ощущает одетый по сезону человек в тени. Характеристика душности погоды. При расчете учитывается влияние влажности воздуха и скорости ветра на теплоощущения человека.
Tes - Эффективная температура на солнце - температура, которую ощущает человек, с поправкой на солнечный нагрев. Характеристика знойности погоды. Зависит от высоты солнца над горизонтом, облачности и скорости ветра. Ночью, в пасмурную погоду, а также при ветре 12 м/с и более поправка равна нулю.
P - Атмосферное давление - приведенное к уровню моря атмосферное давление.
Po - Атмосферное давление - измеренное на уровне метеостанции атмосферное давление.
Tmin - Минимальная температура - минимум температуры воздуха на высоте 2 м над землей.
Tmax - Максимальная температура - максимум температуры воздуха на высоте 2 м над землей.
R - Количество осадков - Количество выпавших осадков за период времени, мм. При наведении курсора мыши на число - период времени, за который выпало указанное количество осадков.
R24 - Количество осадков - Количество выпавших осадков за 24 часа, мм.
S - Снежный покров - Высота снежного покрова, см. При наведении курсора мыши на число - состояние снежного покрова и степень покрытия местности в баллах.